TimeCEST,TemperatureF,Dew PointF,Humidity,Sea Level PressureIn,VisibilityMPH,Wind Direction,Wind SpeedMPH,Gust SpeedMPH,PrecipitationIn,Events,Conditions,WindDirDegrees,DateUTC
12:15 AM,50.0,44.6,82,30.01,-9999.0,West,2.2,-,N/A,,Clear,260,2013-09-19 22:15:00
12:45 AM,48.2,44.6,87,29.98,-9999.0,West,4.5,-,N/A,,Clear,260,2013-09-19 22:45:00
1:15 AM,46.4,42.8,87,29.98,-9999.0,WSW,2.2,-,N/A,,Clear,250,2013-09-19 23:15:00
1:45 AM,46.4,42.8,87,30.01,-9999.0,ESE,2.2,-,N/A,,Clear,110,2013-09-19 23:45:00
2:15 AM,44.6,42.8,93,30.01,-9999.0,South,2.2,-,N/A,,Clear,190,2013-09-20 00:15:00
2:45 AM,44.6,42.8,93,30.01,-9999.0,South,2.2,-,N/A,,Clear,170,2013-09-20 00:45:00
3:15 AM,42.8,42.8,100,30.01,-9999.0,SSW,2.2,-,N/A,,Clear,200,2013-09-20 01:15:00
3:45 AM,42.8,42.8,100,29.98,-9999.0,South,2.2,-,N/A,,Clear,190,2013-09-20 01:45:00
4:15 AM,42.8,42.8,100,30.01,-9999.0,SSE,2.2,-,N/A,,Clear,160,2013-09-20 02:15:00
4:45 AM,42.8,42.8,100,30.01,-9999.0,SE,4.5,-,N/A,,Clear,140,2013-09-20 02:45:00
5:15 AM,42.8,41.0,93,30.01,-9999.0,SSE,4.5,-,N/A,,Clear,160,2013-09-20 03:15:00
5:45 AM,42.8,42.8,100,30.01,-9999.0,SE,4.5,-,N/A,,Clear,130,2013-09-20 03:45:00
6:15 AM,42.8,41.0,93,30.01,-9999.0,SE,2.2,-,N/A,,Clear,140,2013-09-20 04:15:00
6:45 AM,44.6,44.6,100,30.01,-9999.0,SSW,4.5,-,N/A,,Clear,200,2013-09-20 04:45:00
7:15 AM,46.4,44.6,93,30.01,-9999.0,SSW,4.5,-,N/A,,Clear,200,2013-09-20 05:15:00
7:45 AM,48.2,44.6,87,30.01,-9999.0,SSW,4.5,-,N/A,,Clear,200,2013-09-20 05:45:00
8:15 AM,48.2,46.4,93,30.04,-9999.0,SSW,4.5,-,N/A,,Clear,210,2013-09-20 06:15:00
8:45 AM,48.2,46.4,93,30.04,-9999.0,SSW,4.5,-,N/A,,Clear,210,2013-09-20 06:45:00
9:15 AM,50.0,46.4,87,30.04,-9999.0,South,6.7,-,N/A,,Clear,190,2013-09-20 07:15:00
9:45 AM,50.0,46.4,87,30.04,-9999.0,SSE,4.5,-,N/A,,Clear,160,2013-09-20 07:45:00
10:15 AM,51.8,46.4,82,30.04,-9999.0,SE,4.5,-,N/A,,Clear,130,2013-09-20 08:15:00
10:45 AM,51.8,48.2,88,30.04,-9999.0,ESE,2.2,-,N/A,,Clear,120,2013-09-20 08:45:00
11:15 AM,55.4,48.2,77,30.04,-9999.0,South,4.5,-,N/A,,Clear,180,2013-09-20 09:15:00
11:45 AM,59.0,48.2,67,30.04,-9999.0,South,6.7,-,N/A,,Clear,190,2013-09-20 09:45:00
12:15 PM,60.8,46.4,59,30.01,-9999.0,South,6.7,-,N/A,,Clear,190,2013-09-20 10:15:00
12:45 PM,62.6,48.2,59,30.01,-9999.0,SSW,8.9,-,N/A,,Clear,210,2013-09-20 10:45:00
1:15 PM,62.6,46.4,55,30.01,-9999.0,SW,6.7,-,N/A,,Clear,230,2013-09-20 11:15:00
1:45 PM,62.6,48.2,59,30.01,-9999.0,SSW,8.9,-,N/A,,Clear,200,2013-09-20 11:45:00
2:15 PM,62.6,50.0,63,30.01,-9999.0,SSW,4.5,-,N/A,,Clear,210,2013-09-20 12:15:00
2:45 PM,64.4,50.0,59,30.01,-9999.0,WSW,4.5,-,N/A,,Clear,240,2013-09-20 12:45:00
3:15 PM,64.4,50.0,59,30.01,-9999.0,SW,6.7,-,N/A,,Clear,230,2013-09-20 13:15:00
3:45 PM,64.4,51.8,64,30.01,-9999.0,WSW,2.2,-,N/A,,Clear,250,2013-09-20 13:45:00
4:15 PM,64.4,51.8,64,30.01,-9999.0,WNW,4.5,-,N/A,,Clear,300,2013-09-20 14:15:00
4:45 PM,64.4,51.8,64,30.01,-9999.0,NNW,4.5,-,N/A,,Clear,340,2013-09-20 14:45:00
5:15 PM,64.4,51.8,64,29.98,-9999.0,North,4.5,-,N/A,,Clear,360,2013-09-20 15:15:00
5:45 PM,62.6,51.8,68,30.01,-9999.0,North,4.5,-,N/A,,Clear,360,2013-09-20 15:45:00
5:51 PM,62.6,53.6,72,30.01,6.2,North,4.5,-,N/A,Rain,Light Rain Showers,360,2013-09-20 15:51:00
6:15 PM,60.8,53.6,77,30.01,6.2,NE,4.5,-,N/A,Rain,Light Rain Showers,50,2013-09-20 16:15:00
6:45 PM,59.0,53.6,82,30.04,6.2,North,6.7,-,N/A,Rain,Light Rain Showers,360,2013-09-20 16:45:00
7:15 PM,57.2,51.8,82,30.04,6.2,North,6.7,-,N/A,Rain,Light Rain Showers,360,2013-09-20 17:15:00
7:45 PM,55.4,53.6,94,30.04,6.2,NNE,6.7,-,N/A,Rain,Light Rain Showers,30,2013-09-20 17:45:00
8:15 PM,55.4,53.6,94,30.06,6.2,South,4.5,-,N/A,Rain,Light Rain,190,2013-09-20 18:15:00
8:45 PM,55.4,53.6,94,30.06,6.2,SE,2.2,-,N/A,Rain,Light Rain,130,2013-09-20 18:45:00
9:15 PM,53.6,53.6,100,30.06,6.2,South,4.5,-,N/A,Rain,Light Rain,190,2013-09-20 19:15:00
9:45 PM,53.6,53.6,100,30.06,6.2,South,2.2,-,N/A,Rain,Light Rain,170,2013-09-20 19:45:00
9:53 PM,53.6,53.6,100,30.06,6.2,South,2.2,-,N/A,,Mostly Cloudy,170,2013-09-20 19:53:00
10:15 PM,53.6,53.6,100,30.06,-9999.0,South,2.2,-,N/A,,Clear,180,2013-09-20 20:15:00
10:45 PM,53.6,53.6,100,30.09,-9999.0,SSW,2.2,-,N/A,,Clear,200,2013-09-20 20:45:00
11:15 PM,53.6,53.6,100,30.09,-9999.0,SSW,4.5,-,N/A,,Clear,210,2013-09-20 21:15:00
11:45 PM,55.4,51.8,88,30.09,-9999.0,WSW,4.5,-,N/A,,Clear,240,2013-09-20 21:45:00